OPS 4682 DEB, 38415

Orbit data source: Space-Track

OPS 4682 DEB, 38415 is space debris in LEO originally from a launch on Sat, 03 Apr 1965 UTC launched from the Air Force Western Test Range (AFWTR). Debris objects in space refer to the collection of defunct objects orbiting the Earth. Examples of debris include non-operational satellites, rocket bodies, and fragments generated from explosions, collisions, or faulty payload assembly.

Loading next visibility...
Identifier
38415, 1965-027DU
Orbit
LEO
Country
Flag of USUS
Related business
Manufacturer
Unknown
Mission
Spacecraft
Bus & Motor
Unknown
Mass
Unknown
Launch date (UTC)
1965-04-03 (61 years ago)
Launch vehicle
Unknown
Launch site
Air Force Western Test Range (AFWTR)
Object type
Payload
Rocket body
Debris
Shape & HBR
Unknown shape, 0.1 m
Radar Cross Section
Small (<0.1 m²)

Expand to show TLE details & history
Last TLE update: 2 days ago

TLE from 2 days ago
0 OPS 4682 DEB
1 38415U 65027DU  25291.47884217 -.00000490  00000-0 -15984-2 0  9995
2 38415  90.2475   8.9958 0029030  40.3175 320.0093 13.02244236583474
Epoch: 2025-10-18T11:29Z
TLE epoch observation values (Epoch: 2025-10-18T11:29:31.963Z)
Latitude
-0.00007°
Longitude
169.40335°
Altitude
1,239.243 km
Speed
7.243 km/s
True Right ascension
00h 35m 58s
True Declination
0° 00' 00"
Sunlit
Object was in full shadow at epoch
Visualization orbit readout
Latitude
Unknown
Longitude
Unknown
Altitude
Unknown
Speed
Unknown
Apparent Right ascension
Unknown
Apparent Declination
Unknown
Sunlit
N/A
Visualization observer readout
Local Sidereal Time
11:36:06
Azimuth
Unknown
Elevation
Unknown
Doppler factor
Unknown
Orbital elements
Apogee altitude
1,272.576 km
Perigee altitude
1,228.284 km
Semi-major axis
7,628.567 km
Eccentricity
0.0029
Inclination
90.2475°
RAAN
8.9958°
Arg. of periapsis
40.3175°
True anomaly
319.79492°
Mean anomaly
320.0093°
Eccentric anomaly
319.90217°
Mean motion
3.25746 °/min
Orbital period
110.52 mins
BSTAR
-0.0015984
Loading maneuver chart data...
Computing Atmospheric mass density...
Loading historical data...
Loading historical data...
Loading historical data...
Loading historical data...
Loading historical data...
Loading historical data...
Loading historical data...

Documentation

Showing up to 5 results
|